Погода в Цешине

Польша     49°44′55″N   18°38′00″E
темп.,
°C
ветер,
м/с
пор.,
м/с
влажн.,
%
обл.,
%
осадки,
мм/ч
давл.,
гПа
погр.,
м
27 февраля, сб
сб2701:00+3сз2595100 4.7 1029440
04:00+3сз3793100 0.5 1029571
07:00+3сз3792100 0.6 1030540
10:00+3сз3689100 0.1 1031581
13:00+3сз3789100 0.2 1033638
16:00+2ссз3790100 0.1 1033606
19:00+2ссз3790100 0.1 1034566
22:00+2ссз2689100 0.1 1035445
28 февраля, вс
вс2801:00+1з2390100 0.3 1036134
04:00+1ссз2595100 0.1 1035424
07:00+1сз2394100 0.1 1035254
10:00+2зсз2384100 0.1 1035418
13:00+4з226882 0.1 1034595
16:00+5зюз13680 0.0 1032558
19:00+2ююз22801 0.0 103329
22:00+3зсз268975 0.0 1033303
1 марта, пн
пн101:00+3с259487 0.1 1034282
04:00+1ссв119750 0.0 103477
07:00+1с129673 0.0 1035126
10:00+2ссз1189100 0.0 1035247
13:00+4с1183100 0.0 1035354
16:00+4св1181100 0.0 1034401
19:00+2в129176 0.0 103623
22:00+1юв12900 0.0 103622
2 марта, вт
вт201:00+1ю22880 0.0 103627
04:00+1ю22860 0.0 103526
07:00+1ю22810 0.0 103532
10:00+8ююз12590 0.0 1035295
13:00+11з12490 0.0 1034587
16:00+10з11590 0.0 103249
19:00+5ю23750 0.0 103334
22:00+4ю23730 0.0 103435
3 марта, ср
ср301:00+3ю23790 0.0 103338
04:00+2ю23790 0.0 103243
07:00+2ю23810 0.0 103249
10:00+8юз236119 0.0 1031335
13:00+11з245440 0.0 1029782
16:00+10з346551 0.0 1028447
19:00+5ююз238336 0.0 102735
22:00+4ю33840 0.0 102751